C/2017 E3 ( PanSTARRS )

Japanese version
Home page
Updated on April 22, 2017

---------------------------------------------------------------------

* Profile

Discovery Date March 7, 2017
Magnitude 19.2 mag
Discoverer Pan-STARRS 1 telescope (Haleakala)

* Pictures

* Orbital Elements

Epoch 2017 June 16.0 TT = JDT 2457920.5
T 2017 June 1.14801 TT                                  MPCW
q   5.9155628            (2000.0)            P               Q
z  -0.0009076      Peri.  333.72097     -0.77488775     -0.14169856
 +/-0.0001734      Node   220.75237     -0.26900327     -0.80796913
e   1.0053691      Incl.   70.67531     -0.57200194     +0.57193305
From 77 observations 2017 Mar. 7-Apr. 14, mean residual 0".5.

* Magnitudes Graph

        m1 = 6.0 + 5 log d + 10.0 log r

---------------------------------------------------------------------

The orbital elements are published on M.P.E.C. 2017-H04.
The magnitudes graphs are made with Comet for Windows.

---------------------------------------------------------------------

Copyright(C) Seiichi Yoshida (comet@aerith.net). All rights reserved.